This is the latest recevied weather packets stored in our database for station/object N2XP. If no packets are shown the sender has not sent any weather packets the latest 10 day(s).
| Time | Temp. | Humidity | Pressure | Rain* | Wind** | Luminosity | Snow |
|---|---|---|---|---|---|---|---|
| 1777640439 | 8.33° C | 78% | 1011.8 hPa | 0.25 mm | - | - | - |
| 1777639532 | 7.78° C | 79% | 1011.8 hPa | 0.25 mm | - | - | - |
| 1777638631 | 7.22° C | 82% | 1012 hPa | 0 mm | - | - | - |
| 1777637725 | 7.22° C | 87% | 1011.8 hPa | 0 mm | - | - | - |
| 1777636829 | 6.67° C | 94% | 1011.9 hPa | 0 mm | - | - | - |
| 1777635922 | 5.56° C | 96% | 1011.8 hPa | 0 mm | - | - | - |
| 1777635028 | 5° C | 96% | 1011.8 hPa | 0 mm | - | - | - |
| 1777634119 | 4.44° C | 96% | 1011.7 hPa | 0 mm | - | - | - |
| 1777633219 | 3.33° C | 96% | 1011.8 hPa | 0 mm | - | - | - |
| 1777632322 | 2.78° C | 96% | 1011.7 hPa | 0 mm | - | - | - |
| 1777631426 | 2.78° C | 96% | 1011.5 hPa | 0 mm | - | - | - |
| 1777630515 | 2.22° C | 96% | 1011.3 hPa | 0 mm | - | - | - |
| 1777629613 | 2.22° C | 95% | 1011.1 hPa | 0 mm | - | - | - |
| 1777628710 | 2.22° C | 95% | 1010.9 hPa | 0 mm | - | - | - |
| 1777627816 | 2.22° C | 95% | 1010.8 hPa | 0 mm | - | - | - |
| 1777626909 | 2.78° C | 95% | 1010.7 hPa | 0 mm | - | - | - |
| 1777626016 | 2.78° C | 95% | 1010.6 hPa | 0 mm | - | - | - |
| 1777625103 | 2.78° C | 95% | 1010.6 hPa | 0 mm | - | - | - |
| 1777624201 | 2.78° C | 95% | 1010.5 hPa | 0 mm | - | - | - |
| 1777623366 | 3.33° C | 95% | 1010.5 hPa | 0 mm | - | - | - |
| 1777622457 | 3.33° C | 94% | 1010.3 hPa | 0 mm | - | - | - |
| 1777621554 | 3.33° C | 94% | 1010.2 hPa | 0 mm | - | - | - |
| 1777620654 | 3.89° C | 94% | 1010 hPa | 0 mm | - | - | - |
| 1777619750 | 3.89° C | 94% | 1010 hPa | 0 mm | - | - | - |
| 1777618849 | 3.89° C | 94% | 1010 hPa | 0 mm | - | - | - |
* Rain latest hour (hover to see other rain measurements)
** Current wind speed in m/s (hover to see current wind gust speed)